Change the Weather History Date:

Monday, September 23, 2013

  Actual Average (PASK) Record (PASK)
Temperature  
Mean Temperature 28 °F -  
Max Temperature 35 °F 41 °F 53 °F (2005)
Min Temperature 21 °F 31 °F 24 °F (2013)
Degree Days  
Heating Degree Days 38    
Moisture  
Dew Point 24 °F    
Average Humidity 93    
Maximum Humidity 100    
Minimum Humidity 79    
Precipitation  
Precipitation 0.00 in - - ()
Sea Level Pressure  
Sea Level Pressure 29.70 in    
Wind  
Wind Speed 2 mph (ESE)    
Max Wind Speed 12 mph    
Max Gust Speed -    
Visibility 5 miles    
Events Fog , Snow    
Averages and records for this station are not official NWS values.
T = Trace of Precipitation, MM = Missing Value Source: NWS Daily Summary

Daily Weather History Graph

Daily Weather History Graph

Search for Another Location

Airport or City:

Trip Planner

Search our weather history database for the weather conditions in past years. The results will help you decide how hot, cold, wet, or windy it might be!

Date:

Astronomy

Sep. 23, 2013 Rise Set
Actual Time 8:28 AM AKDT 8:37 PM AKDT
Civil Twilight 7:35 AM AKDT 9:30 PM AKDT
Nautical Twilight 6:28 AM AKDT 10:36 PM AKDT
Astronomical Twilight 5:09 AM AKDT 11:53 PM AKDT
Moon 8:57 PM AKDT (9/23) 3:16 PM AKDT (9/23)
Length of Visible Light 13h 55m
Length of Day
12h 08m
Waning Gibbous, 80% of the Moon is Illuminated
Sep 23
Waning Gibbous
Sep 26
Last Quarter
Oct 4
New
Oct 11
First Quarter
Oct 18
Full

Hourly Weather History & Observations

Time (AKDT) Temp. Windchill Dew Point Humidity Pressure Visibility Wind Dir Wind Speed Gust Speed Precip Events Conditions
12:01 AM 26.1 °F - 23.0 °F 88% 29.67 in 10.0 mi Calm Calm - 0.00 in   Partly Cloudy
12:18 AM 24.8 °F - 23.0 °F 93% 29.55 in 10.0 mi Calm Calm - N/A   Scattered Clouds
12:26 AM 26.6 °F - 24.8 °F 93% 29.55 in 9.0 mi Calm Calm - N/A   Mostly Cloudy
1:01 AM 24.8 °F - 24.8 °F 100% 29.56 in 10.0 mi Calm Calm - N/A   Scattered Clouds
1:32 AM 24.8 °F - 23.0 °F 93% 29.56 in 2.0 mi Calm Calm - N/A   Partly Cloudy
1:45 AM 24.8 °F - 23.0 °F 93% 29.57 in 1.5 mi Calm Calm - N/A   Mostly Cloudy
1:53 AM 24.8 °F - 23.0 °F 93% 29.57 in 0.5 mi Calm Calm - N/A Fog Light Freezing Fog
2:01 AM 24.1 °F - 21.9 °F 91% 29.70 in 0.5 mi Calm Calm - N/A Fog Light Freezing Fog
2:17 AM 23.0 °F - 21.2 °F 93% 29.57 in 1.0 mi Calm Calm - N/A   Overcast
2:24 AM 23.0 °F - 21.2 °F 93% 29.57 in 1.5 mi Calm Calm - 0.00 in Snow Light Snow
2:29 AM 23.0 °F - 21.2 °F 93% 29.58 in 2.0 mi Calm Calm - 0.00 in Snow Light Snow
2:40 AM 23.0 °F - 21.2 °F 93% 29.58 in 5.0 mi Calm Calm - 0.00 in   Mostly Cloudy
2:47 AM 23.0 °F - 21.2 °F 93% 29.58 in 5.0 mi Calm Calm - 0.00 in   Scattered Clouds
2:54 AM 23.0 °F - 21.2 °F 93% 29.58 in 2.0 mi Calm Calm - 0.00 in   Mostly Cloudy
2:56 AM 23.0 °F 18.4 °F 21.2 °F 93% 29.59 in 1.0 mi South 3.5 mph - 0.00 in   Mostly Cloudy
2:58 AM 23.0 °F 18.4 °F 21.2 °F 93% 29.59 in 0.5 mi South 3.5 mph - 0.00 in Fog Light Freezing Fog
3:01 AM 23.0 °F - 21.0 °F 92% 29.72 in 0.5 mi Calm Calm - 0.00 in Fog Light Freezing Fog
3:08 AM 23.0 °F - 21.2 °F 93% 29.59 in 0.2 mi Calm Calm - N/A Fog Light Freezing Fog
3:16 AM 23.0 °F - 21.2 °F 93% 29.59 in 0.5 mi Calm Calm - N/A Fog Light Freezing Fog
3:37 AM 21.2 °F - 19.4 °F 93% 29.60 in 0.8 mi Calm Calm - N/A   Overcast
3:41 AM 21.2 °F - 19.4 °F 93% 29.60 in 1.2 mi Calm Calm - N/A   Mostly Cloudy
3:49 AM 21.2 °F - 19.4 °F 93% 29.60 in 2.0 mi Calm Calm - N/A   Mostly Cloudy
3:54 AM 21.2 °F 16.4 °F 19.4 °F 93% 29.60 in 1.0 mi North 3.5 mph - N/A   Mostly Cloudy
4:01 AM 21.2 °F - 21.2 °F 100% 29.60 in 0.8 mi Calm Calm - N/A   Mostly Cloudy
4:18 AM 23.0 °F - 21.2 °F 93% 29.61 in 0.5 mi Calm Calm - N/A Fog Light Freezing Fog
4:44 AM 23.0 °F - 21.2 °F 93% 29.61 in 0.5 mi Calm Calm - N/A Fog Light Freezing Fog
4:51 AM 23.0 °F - 21.2 °F 93% 29.62 in 3.0 mi Calm Calm - N/A   Overcast
5:01 AM 23.0 °F - 21.9 °F 96% 29.75 in 10.0 mi Calm Calm - N/A   Overcast
5:18 AM 24.8 °F - 23.0 °F 93% 29.62 in 10.0 mi Calm Calm - 0.00 in Snow Light Snow
5:40 AM 24.8 °F - 23.0 °F 93% 29.63 in 2.5 mi Calm Calm - 0.00 in   Overcast
5:47 AM 24.8 °F - 23.0 °F 93% 29.63 in 1.0 mi Calm Calm - 0.00 in   Overcast
5:53 AM 24.8 °F 20.5 °F 23.0 °F 93% 29.63 in 0.5 mi WNW 3.5 mph - 0.00 in Fog Light Freezing Fog
6:01 AM 24.1 °F 19.7 °F 23.0 °F 96% 29.76 in 0.5 mi NW 3.5 mph - 0.00 in Fog Light Freezing Fog
6:13 AM 23.0 °F - 21.2 °F 93% 29.64 in 1.0 mi Calm Calm - N/A   Mostly Cloudy
6:17 AM 23.0 °F - 21.2 °F 93% 29.64 in 2.0 mi Calm Calm - N/A   Mostly Cloudy
6:22 AM 23.0 °F - 21.2 °F 93% 29.64 in 8.0 mi Calm Calm - N/A   Scattered Clouds
6:56 AM 23.0 °F - 21.2 °F 93% 29.65 in 5.0 mi Calm Calm - N/A   Mostly Cloudy
6:59 AM 23.0 °F - 21.2 °F 93% 29.65 in 1.5 mi Calm Calm - N/A   Mostly Cloudy
7:01 AM 23.0 °F 18.4 °F 21.2 °F 93% 29.65 in 1.0 mi East 3.5 mph - N/A   Mostly Cloudy
7:09 AM 23.0 °F - 21.9 °F 96% 29.78 in 1.0 mi Calm Calm - N/A   Overcast
7:17 AM 23.0 °F - 23.0 °F 100% 29.65 in 1.2 mi Calm Calm - N/A   Overcast
7:20 AM 23.0 °F - 23.0 °F 100% 29.65 in 0.8 mi Calm Calm - N/A   Overcast
7:30 AM 23.0 °F - 21.2 °F 93% 29.65 in 0.5 mi Calm Calm - N/A Fog Light Freezing Fog
8:01 AM 23.0 °F - 21.9 °F 96% 29.79 in 0.5 mi Calm Calm - N/A Fog Light Freezing Fog
8:13 AM 23.0 °F 18.4 °F 21.2 °F 93% 29.66 in 0.2 mi NNE 3.5 mph - N/A Fog Light Freezing Fog
8:31 AM 21.2 °F - 21.2 °F 100% 29.67 in 0.8 mi Calm Calm - N/A   Overcast
8:33 AM 21.2 °F - 21.2 °F 100% 29.67 in 1.8 mi Calm Calm - N/A   Mostly Cloudy
8:35 AM 21.2 °F - 21.2 °F 100% 29.67 in 4.0 mi Calm Calm - N/A   Mostly Cloudy
8:47 AM 23.0 °F - 21.2 °F 93% 29.67 in 10.0 mi Calm Calm - N/A   Scattered Clouds
9:01 AM 23.0 °F - 21.9 °F 96% 29.80 in 10.0 mi Calm Calm - N/A   Partly Cloudy
10:01 AM 24.1 °F - 24.1 °F 100% 29.81 in 10.0 mi Calm Calm - N/A   Partly Cloudy
10:52 AM 26.6 °F 20.0 °F 26.6 °F 100% 29.70 in 10.0 mi East 5.8 mph - N/A   Mostly Cloudy
11:01 AM 27.0 °F 18.7 °F 26.1 °F 96% 29.83 in 10.0 mi East 8.1 mph - N/A   Mostly Cloudy
11:12 AM 26.6 °F 18.2 °F 26.6 °F 100% 29.70 in 10.0 mi East 8.1 mph - N/A   Overcast
12:01 PM 28.0 °F 20.8 °F 27.0 °F 96% 29.84 in 10.0 mi East 6.9 mph - N/A   Overcast
12:40 PM 28.4 °F 19.7 °F 26.6 °F 93% 29.71 in 10.0 mi East 9.2 mph - N/A   Overcast
1:01 PM 28.9 °F 19.8 °F 27.0 °F 92% 29.85 in 9.0 mi East 10.4 mph - 0.00 in Snow Light Snow
2:01 PM 30.0 °F 20.5 °F 27.0 °F 88% 29.86 in 9.0 mi East 11.5 mph - 0.00 in   Overcast
2:21 PM 30.2 °F 23.4 °F 28.4 °F 93% 29.74 in 2.0 mi East 6.9 mph - 0.00 in Snow Light Snow
2:32 PM 30.2 °F 21.3 °F 28.4 °F 93% 29.74 in 8.0 mi East 10.4 mph - 0.00 in Snow Light Snow
3:01 PM 30.9 °F 22.2 °F 28.0 °F 89% 29.87 in 10.0 mi East 10.4 mph - 0.00 in   Overcast
3:50 PM 32.0 °F 25.6 °F 28.4 °F 87% 29.75 in 10.0 mi East 6.9 mph - N/A   Overcast
4:01 PM 32.0 °F 24.8 °F 28.9 °F 88% 29.88 in 10.0 mi East 8.1 mph - N/A   Overcast
4:39 PM 33.8 °F 26.4 °F 30.2 °F 87% 29.76 in 10.0 mi East 9.2 mph - N/A   Overcast
5:01 PM 34.0 °F 26.6 °F 30.0 °F 85% 29.89 in 10.0 mi East 9.2 mph - N/A   Mostly Cloudy
6:01 PM 34.0 °F 27.2 °F 28.9 °F 82% 29.89 in 10.0 mi East 8.1 mph - N/A   Overcast
7:01 PM 34.0 °F 29.8 °F 28.0 °F 79% 29.90 in 10.0 mi SE 4.6 mph - N/A   Overcast
7:28 PM 33.8 °F 26.4 °F 30.2 °F 87% 29.77 in 5.0 mi ESE 9.2 mph - 0.00 in Snow Light Snow
7:36 PM 33.8 °F 28.6 °F 30.2 °F 87% 29.77 in 1.8 mi ESE 5.8 mph - 0.00 in Snow Light Snow
7:43 PM 33.8 °F 28.6 °F 30.2 °F 87% 29.77 in 2.0 mi SSE 5.8 mph - 0.00 in Snow Light Snow
7:58 PM 33.8 °F 30.8 °F 30.2 °F 87% 29.77 in 3.0 mi SE 3.5 mph - 0.00 in Snow Light Snow
8:01 PM 33.1 °F 28.7 °F 30.9 °F 92% 29.90 in 3.0 mi ESE 4.6 mph - 0.00 in Snow Light Snow
8:06 PM 33.8 °F 30.8 °F 30.2 °F 87% 29.77 in 1.8 mi ESE 3.5 mph - 0.00 in Snow Light Snow
8:15 PM 32.0 °F 27.5 °F 30.2 °F 93% 29.77 in 3.0 mi ESE 4.6 mph - 0.00 in Snow Light Snow
8:52 PM 32.0 °F 26.4 °F 30.2 °F 93% 29.78 in 4.0 mi ESE 5.8 mph - 0.00 in Snow Light Snow
9:01 PM 32.0 °F 27.5 °F 30.2 °F 93% 29.77 in 4.0 mi ESE 4.6 mph - 0.00 in Snow Light Snow
9:41 PM 32.0 °F 26.4 °F 30.9 °F 96% 29.91 in 10.0 mi East 5.8 mph - 0.00 in   Overcast
10:01 PM 32.0 °F 26.4 °F 30.0 °F 92% 29.91 in 10.0 mi East 5.8 mph - 0.00 in Snow Light Snow
11:01 PM 30.9 °F 25.2 °F 30.0 °F 96% 29.91 in 10.0 mi East 5.8 mph - 0.00 in   Overcast
11:27 PM 32.0 °F 26.4 °F 30.2 °F 93% 29.78 in 10.0 mi East 5.8 mph - 0.00 in   Overcast